TimeCDT,TemperatureF,Dew PointF,Humidity,Sea Level PressureIn,VisibilityMPH,Wind Direction,Wind SpeedMPH,Gust SpeedMPH,PrecipitationIn,Events,Conditions,WindDirDegrees,DateUTC
12:04 AM,39.2,17.6,42,29.80,10.0,SSW,4.6,-,N/A,,Clear,200,2012-10-08 05:04:00
12:24 AM,37.4,17.6,45,29.79,10.0,SSW,4.6,-,N/A,,Clear,200,2012-10-08 05:24:00
12:43 AM,39.2,17.6,42,29.79,10.0,SW,3.5,-,N/A,,Clear,220,2012-10-08 05:43:00
1:04 AM,37.4,17.6,45,29.79,10.0,SW,3.5,-,N/A,,Clear,220,2012-10-08 06:04:00
1:24 AM,39.2,19.4,45,29.78,10.0,SW,5.8,-,N/A,,Clear,230,2012-10-08 06:24:00
1:43 AM,39.2,19.4,45,29.78,10.0,SSW,3.5,-,N/A,,Clear,210,2012-10-08 06:43:00
2:04 AM,39.2,19.4,45,29.77,10.0,SSW,3.5,-,N/A,,Scattered Clouds,210,2012-10-08 07:04:00
2:24 AM,39.2,19.4,45,29.76,10.0,SSW,3.5,-,N/A,,Mostly Cloudy,200,2012-10-08 07:24:00
2:44 AM,39.2,19.4,45,29.76,10.0,South,5.8,-,N/A,,Mostly Cloudy,180,2012-10-08 07:44:00
3:04 AM,41.0,21.2,45,29.75,10.0,South,4.6,-,N/A,,Mostly Cloudy,190,2012-10-08 08:04:00
3:23 AM,42.8,21.2,42,29.74,10.0,SSW,4.6,-,N/A,,Overcast,200,2012-10-08 08:23:00
3:44 AM,42.8,21.2,42,29.73,10.0,SSW,3.5,-,N/A,,Overcast,200,2012-10-08 08:44:00
4:04 AM,44.6,23.0,43,29.73,10.0,SW,3.5,-,N/A,,Overcast,220,2012-10-08 09:04:00
4:23 AM,46.4,24.8,43,29.72,10.0,Calm,Calm,-,N/A,,Overcast,0,2012-10-08 09:23:00
4:44 AM,44.6,24.8,46,29.72,10.0,South,3.5,-,N/A,,Overcast,170,2012-10-08 09:44:00
5:04 AM,46.4,26.6,46,29.71,10.0,SSW,3.5,-,N/A,,Mostly Cloudy,200,2012-10-08 10:04:00
5:24 AM,46.4,24.8,43,29.70,10.0,SSW,3.5,-,N/A,,Scattered Clouds,200,2012-10-08 10:24:00
5:44 AM,46.4,24.8,43,29.69,10.0,South,4.6,-,N/A,,Scattered Clouds,180,2012-10-08 10:44:00
6:04 AM,46.4,24.8,43,29.69,10.0,Calm,Calm,-,N/A,,Scattered Clouds,0,2012-10-08 11:04:00
6:24 AM,44.6,24.8,46,29.68,10.0,South,3.5,-,N/A,,Scattered Clouds,180,2012-10-08 11:24:00
6:44 AM,44.6,26.6,49,29.67,10.0,South,3.5,-,N/A,,Clear,170,2012-10-08 11:44:00
7:04 AM,42.8,26.6,53,29.67,10.0,SSE,3.5,-,N/A,,Scattered Clouds,160,2012-10-08 12:04:00
7:24 AM,44.6,26.6,49,29.66,10.0,South,4.6,-,N/A,,Mostly Cloudy,170,2012-10-08 12:24:00
7:44 AM,44.6,28.4,53,29.66,10.0,South,4.6,-,N/A,,Overcast,170,2012-10-08 12:44:00
8:04 AM,46.4,28.4,50,29.65,10.0,South,5.8,-,N/A,,Light Drizzle,170,2012-10-08 13:04:00
8:23 AM,46.4,28.4,50,29.64,10.0,South,8.1,-,N/A,,Overcast,170,2012-10-08 13:23:00
9:03 AM,46.4,28.4,50,29.63,10.0,South,8.1,-,N/A,,Overcast,180,2012-10-08 14:03:00
9:18 AM,48.2,28.4,46,29.63,10.0,South,6.9,-,N/A,,Mostly Cloudy,190,2012-10-08 14:18:00
9:22 AM,48.2,28.4,46,29.63,10.0,South,5.8,-,N/A,,Mostly Cloudy,190,2012-10-08 14:22:00
10:01 AM,48.2,30.2,50,29.61,10.0,SSE,5.8,-,N/A,,Overcast,150,2012-10-08 15:01:00
10:21 AM,51.8,30.2,44,29.59,10.0,SSE,8.1,-,N/A,,Mostly Cloudy,160,2012-10-08 15:21:00
10:41 AM,53.6,28.4,38,29.58,10.0,South,6.9,-,N/A,,Mostly Cloudy,190,2012-10-08 15:41:00
11:01 AM,53.6,30.2,41,29.58,10.0,SSW,8.1,-,N/A,,Scattered Clouds,200,2012-10-08 16:01:00
11:21 AM,55.4,28.4,36,29.58,10.0,WSW,12.7,18.4,N/A,,Mostly Cloudy,240,2012-10-08 16:21:00
12:02 PM,57.2,30.2,36,29.58,10.0,West,8.1,19.6,N/A,,Overcast,260,2012-10-08 17:02:00
12:41 PM,59.0,33.8,39,29.57,10.0,West,16.1,25.3,N/A,,Overcast,260,2012-10-08 17:41:00
1:00 PM,60.8,33.8,36,29.58,10.0,WNW,15.0,20.7,N/A,,Mostly Cloudy,290,2012-10-08 18:00:00
1:01 PM,60.8,33.8,36,29.57,10.0,West,15.0,20.7,N/A,,Mostly Cloudy,270,2012-10-08 18:01:00
1:23 PM,60.8,35.6,39,29.57,10.0,WNW,17.3,25.3,N/A,,Scattered Clouds,290,2012-10-08 18:23:00
2:01 PM,62.6,37.4,39,29.58,10.0,WNW,16.1,21.9,N/A,,Scattered Clouds,300,2012-10-08 19:01:00
2:38 PM,62.6,37.4,39,29.58,10.0,WNW,21.9,33.4,N/A,,Scattered Clouds,300,2012-10-08 19:38:00
2:55 PM,62.6,37.4,39,29.59,10.0,WNW,21.9,28.8,N/A,,Scattered Clouds,290,2012-10-08 19:55:00
3:13 PM,62.6,37.4,39,29.60,10.0,WNW,17.3,26.5,N/A,,Mostly Cloudy,300,2012-10-08 20:13:00
3:57 PM,60.8,37.4,42,29.62,10.0,NW,17.3,26.5,N/A,,Mostly Cloudy,310,2012-10-08 20:57:00
4:21 PM,59.0,37.4,45,29.63,10.0,WNW,19.6,26.5,N/A,,Overcast,300,2012-10-08 21:21:00
4:35 PM,59.0,37.4,45,29.64,10.0,NW,18.4,26.5,N/A,,Mostly Cloudy,310,2012-10-08 21:35:00
4:41 PM,59.0,35.6,42,29.64,10.0,NW,17.3,26.5,N/A,,Mostly Cloudy,310,2012-10-08 21:41:00
4:53 PM,60.8,35.6,39,29.65,10.0,NW,20.7,25.3,N/A,,Mostly Cloudy,310,2012-10-08 21:53:00
4:55 PM,60.8,35.6,39,29.65,10.0,NW,21.9,26.5,N/A,,Mostly Cloudy,310,2012-10-08 21:55:00
5:14 PM,59.0,35.6,42,29.66,10.0,NW,19.6,26.5,N/A,,Mostly Cloudy,320,2012-10-08 22:14:00
5:23 PM,57.2,35.6,44,29.66,10.0,NW,18.4,28.8,N/A,,Scattered Clouds,320,2012-10-08 22:23:00
5:48 PM,57.2,35.6,44,29.68,10.0,NW,16.1,-,N/A,,Scattered Clouds,320,2012-10-08 22:48:00
6:21 PM,55.4,33.8,44,29.69,10.0,WNW,13.8,19.6,N/A,,Clear,300,2012-10-08 23:21:00
6:29 PM,55.4,35.6,47,29.69,10.0,WNW,11.5,19.6,N/A,,Scattered Clouds,300,2012-10-08 23:29:00
6:36 PM,53.6,35.6,51,29.69,10.0,NW,9.2,-,N/A,,Clear,310,2012-10-08 23:36:00
7:04 PM,53.6,35.6,51,29.70,10.0,WNW,6.9,-,N/A,,Clear,290,2012-10-09 00:04:00
7:12 PM,51.8,35.6,54,29.70,10.0,WNW,5.8,-,N/A,,Clear,300,2012-10-09 00:12:00
7:27 PM,51.8,35.6,54,29.71,10.0,WNW,5.8,-,N/A,,Clear,290,2012-10-09 00:27:00
8:01 PM,50.0,35.6,58,29.71,10.0,WSW,1.2,-,N/A,,Clear,240,2012-10-09 01:01:00
8:21 PM,50.0,33.8,54,29.71,10.0,SW,2.3,-,N/A,,Clear,230,2012-10-09 01:21:00
8:41 PM,48.2,33.8,58,29.72,10.0,WSW,3.5,-,N/A,,Scattered Clouds,240,2012-10-09 01:41:00
9:01 PM,48.2,33.8,58,29.72,10.0,WSW,3.5,-,N/A,,Mostly Cloudy,240,2012-10-09 02:01:00
9:05 PM,48.2,33.8,58,29.72,10.0,WSW,3.5,-,N/A,,Mostly Cloudy,250,2012-10-09 02:05:00
9:29 PM,48.2,33.8,58,29.72,10.0,Calm,Calm,-,N/A,,Mostly Cloudy,0,2012-10-09 02:29:00
10:01 PM,48.2,33.8,58,29.73,10.0,West,3.5,-,N/A,,Mostly Cloudy,260,2012-10-09 03:01:00
10:38 PM,48.2,35.6,62,29.74,10.0,West,3.5,-,N/A,,Scattered Clouds,270,2012-10-09 03:38:00
10:47 PM,48.2,33.8,58,29.74,10.0,Calm,Calm,-,N/A,,Scattered Clouds,0,2012-10-09 03:47:00
11:18 PM,46.4,33.8,62,29.74,10.0,West,4.6,-,N/A,,Clear,260,2012-10-09 04:18:00
11:41 PM,46.4,33.8,62,29.73,10.0,West,5.8,-,N/A,,Clear,260,2012-10-09 04:41:00